| time (UTC) | temp F | wind direction | speed MPH | gust MPH | rain 1hr in | rain 24hr in | rain mn in | humidity % | barometer mb |
| 20260508034533 | 54 | 217 | 0.0 | 0.0 | 0.00 | 0.38 | 0.38 | 96 | 1013.2 |
| 20260508033004 | 54 | 217 | 0.0 | 0.0 | 0.00 | 0.38 | 0.38 | 96 | 1012.9 |
| 20260508031509 | 54 | 217 | 0.0 | 0.0 | 0.00 | 0.38 | 0.38 | 95 | 1012.9 |
| 20260508030008 | 54 | 217 | 0.0 | 0.0 | 0.00 | 0.38 | 0.38 | 95 | 1012.9 |
| 20260508024516 | 55 | 217 | 0.0 | 0.0 | 0.00 | 0.38 | 0.38 | 95 | 1012.8 |
| 20260508023005 | 55 | 217 | 0.0 | 0.0 | 0.00 | 0.38 | 0.38 | 95 | 1012.8 |
| 20260508021506 | 55 | 217 | 0.0 | 0.0 | 0.00 | 0.38 | 0.38 | 96 | 1012.5 |
| 20260508020008 | 54 | 217 | 0.0 | 0.0 | 0.00 | 0.38 | 0.38 | 96 | 1012.3 |
| 20260508014510 | 54 | 217 | 0.0 | 0.0 | 0.00 | 0.38 | 0.38 | 95 | 1012.4 |
| 20260508013013 | 54 | 217 | 0.0 | 0.0 | 0.00 | 0.38 | 0.38 | 95 | 1011.8 |
| 20260508011507 | 55 | 217 | 0.0 | 0.0 | 0.00 | 0.38 | 0.38 | 95 | 1011.5 |
| 20260508010009 | 55 | 217 | 0.0 | 0.0 | 0.00 | 0.38 | 0.38 | 95 | 1011.7 |
| 20260508004504 | 55 | 217 | 0.0 | 0.0 | 0.00 | 0.38 | 0.38 | 95 | 1011.8 |
| 20260508003012 | 55 | 217 | 0.0 | 0.0 | 0.00 | 0.38 | 0.38 | 94 | 1011.2 |
| 20260508001527 | 55 | 217 | 0.0 | 0.0 | 0.00 | 0.38 | 0.38 | 94 | 1011.4 |
| 20260508000009 | 55 | 217 | 0.0 | 0.0 | 0.00 | 0.38 | 0.38 | 94 | 1011.2 |
| 20260507234510 | 55 | 217 | 0.0 | 0.0 | 0.00 | 0.38 | 0.38 | 94 | 1010.7 |
| 20260507233009 | 55 | 217 | 0.0 | 0.0 | 0.00 | 0.38 | 0.38 | 94 | 1010.6 |
| 20260507231512 | 56 | 275 | 0.0 | 0.0 | 0.00 | 0.38 | 0.38 | 94 | 1010.2 |
| 20260507230014 | 56 | 292 | 0.0 | 0.0 | 0.00 | 0.38 | 0.38 | 94 | 1010.3 |
| 20260507224515 | 56 | 296 | 0.0 | 0.0 | 0.00 | 0.38 | 0.38 | 94 | 1010.0 |
| 20260507223014 | 56 | 276 | 0.0 | 0.0 | 0.00 | 0.38 | 0.38 | 94 | 1010.1 |
| 20260507221514 | 56 | 272 | 0.0 | 0.0 | 0.00 | 0.38 | 0.38 | 95 | 1009.9 |
| 20260507220016 | 55 | 266 | 0.0 | 0.0 | 0.00 | 0.38 | 0.38 | 95 | 1010.1 |
| 20260507214515 | 55 | 290 | 0.0 | 0.0 | 0.00 | 0.38 | 0.38 | 96 | 1010.2 |
| 20260507213026 | 55 | 289 | 0.0 | 0.0 | 0.00 | 0.38 | 0.38 | 96 | 1009.8 |
| 20260507211517 | 55 | 273 | 0.0 | 0.0 | 0.00 | 0.38 | 0.38 | 96 | 1009.7 |
| 20260507210012 | 55 | 232 | 0.0 | 0.0 | 0.00 | 0.38 | 0.38 | 96 | 1009.6 |
| 20260507204517 | 56 | 265 | 0.0 | 0.0 | 0.00 | 0.38 | 0.38 | 96 | 1009.3 |
| 20260507203024 | 56 | 203 | 0.0 | 0.0 | 0.00 | 0.38 | 0.38 | 96 | 1009.4 |
| 20260507201516 | 56 | 235 | 0.0 | 0.0 | 0.00 | 0.38 | 0.38 | 96 | 1009.4 |
| 20260507200017 | 57 | 302 | 0.0 | 0.0 | 0.00 | 0.38 | 0.38 | 97 | 1009.4 |
| 20260507194525 | 57 | 191 | 0.0 | 0.0 | 0.00 | 0.38 | 0.38 | 97 | 1009.3 |
| 20260507193020 | 57 | 309 | 0.0 | 0.0 | 0.00 | 0.38 | 0.38 | 97 | 1009.3 |
| 20260507191521 | 57 | 291 | 0.0 | 0.0 | 0.01 | 0.40 | 0.38 | 97 | 1009.4 |
| 20260507190017 | 57 | 288 | 0.0 | 0.0 | 0.01 | 0.46 | 0.38 | 97 | 1009.6 |
| 20260507184522 | 57 | 282 | 0.0 | 1.0 | 0.01 | 0.48 | 0.38 | 97 | 1009.0 |
| 20260507183018 | 58 | 276 | 0.0 | 0.0 | 0.02 | 0.52 | 0.38 | 97 | 1009.3 |
| 20260507181521 | 58 | 275 | 0.0 | 0.0 | 0.01 | 0.52 | 0.37 | 97 | 1009.0 |
| 20260507180022 | 59 | 243 | 0.0 | 0.0 | 0.01 | 0.52 | 0.37 | 97 | 1008.7 |
| 20260507174531 | 60 | 316 | 0.0 | 0.0 | 0.01 | 0.52 | 0.37 | 97 | 1009.1 |
| 20260507173045 | 62 | 329 | 0.0 | 0.0 | 0.00 | 0.51 | 0.36 | 96 | 1009.2 |
| 20260507171521 | 67 | 21 | 0.0 | 0.0 | 0.01 | 0.51 | 0.36 | 98 | 1008.2 |
| 20260507170005 | 68 | 21 | 0.0 | 0.0 | 0.02 | 0.51 | 0.36 | 98 | 1007.7 |
| 20260507164506 | 68 | 21 | 0.0 | 0.0 | 0.02 | 0.51 | 0.36 | 98 | 1008.1 |
| 20260507163009 | 67 | 21 | 0.0 | 0.0 | 0.02 | 0.51 | 0.36 | 98 | 1008.5 |
| 20260507161505 | 68 | 21 | 0.0 | 0.0 | 0.01 | 0.50 | 0.35 | 98 | 1009.2 |
| 20260507160016 | 68 | 21 | 0.0 | 0.0 | 0.00 | 0.49 | 0.34 | 98 | 1009.5 |
| 20260507154504 | 67 | 21 | 0.0 | 0.0 | 0.01 | 0.49 | 0.34 | 98 | 1009.3 |
| 20260507153008 | 67 | 45 | 0.0 | 0.0 | 0.02 | 0.49 | 0.34 | 98 | 1008.8 |
| 20260507151514 | 68 | 45 | 0.0 | 0.0 | 0.04 | 0.49 | 0.34 | 98 | 1009.0 |
| 20260507150012 | 67 | 53 | 0.0 | 0.0 | 0.05 | 0.49 | 0.34 | 98 | 1009.2 |
| 20260507144505 | 67 | 53 | 0.0 | 0.0 | 0.04 | 0.48 | 0.33 | 98 | 1009.3 |
| 20260507143007 | 67 | 53 | 0.0 | 0.0 | 0.04 | 0.47 | 0.32 | 98 | 1009.6 |
| 20260507141510 | 67 | 97 | 0.0 | 0.0 | 0.04 | 0.45 | 0.30 | 98 | 1009.4 |
| 20260507140020 | 67 | 102 | 0.0 | 0.0 | 0.04 | 0.44 | 0.29 | 98 | 1009.4 |
| 20260507134516 | 67 | 102 | 0.0 | 0.0 | 0.04 | 0.44 | 0.29 | 98 | 1009.8 |
| 20260507133018 | 66 | 102 | 0.0 | 0.0 | 0.03 | 0.43 | 0.28 | 98 | 1010.1 |
| 20260507131511 | 67 | 102 | 0.0 | 0.0 | 0.01 | 0.41 | 0.26 | 98 | 1010.0 |
| 20260507130015 | 66 | 102 | 0.0 | 0.0 | 0.00 | 0.40 | 0.25 | 98 | 1009.9 |
| 20260507124518 | 66 | 102 | 0.0 | 0.0 | 0.00 | 0.40 | 0.25 | 98 | 1010.0 |
| 20260507123033 | 66 | 102 | 0.0 | 0.0 | 0.00 | 0.40 | 0.25 | 98 | 1010.0 |
| 20260507121518 | 66 | 102 | 0.0 | 0.0 | 0.00 | 0.40 | 0.25 | 98 | 1009.8 |
| 20260507120007 | 66 | 102 | 0.0 | 0.0 | 0.00 | 0.40 | 0.25 | 98 | 1010.0 |
| 20260507114513 | 65 | 102 | 0.0 | 0.0 | 0.00 | 0.40 | 0.25 | 98 | 1009.9 |
| 20260507113017 | 65 | 101 | 0.0 | 0.0 | 0.01 | 0.40 | 0.25 | 98 | 1010.3 |
| 20260507111522 | 65 | 101 | 0.0 | 0.0 | 0.01 | 0.40 | 0.25 | 98 | 1010.2 |
| 20260507110033 | 65 | 101 | 0.0 | 0.0 | 0.01 | 0.40 | 0.25 | 98 | 1010.4 |
| 20260507104512 | 65 | 101 | 0.0 | 0.0 | 0.01 | 0.40 | 0.25 | 98 | 1009.9 |
| 20260507103002 | 65 | 101 | 0.0 | 0.0 | 0.01 | 0.39 | 0.24 | 98 | 1009.8 |
| 20260507101504 | 65 | 126 | 0.0 | 0.0 | 0.01 | 0.39 | 0.24 | 97 | 1009.9 |
| 20260507100006 | 64 | 126 | 0.0 | 0.0 | 0.01 | 0.39 | 0.24 | 98 | 1010.0 |
| 20260507094507 | 64 | 126 | 0.0 | 0.0 | 0.01 | 0.39 | 0.24 | 97 | 1009.9 |
| 20260507093006 | 64 | 126 | 0.0 | 0.0 | 0.01 | 0.38 | 0.23 | 97 | 1010.1 |
| 20260507091505 | 64 | 126 | 0.0 | 0.0 | 0.01 | 0.38 | 0.23 | 97 | 1009.9 |
| 20260507090010 | 64 | 126 | 0.0 | 0.0 | 0.01 | 0.38 | 0.23 | 97 | 1010.1 |
| 20260507084507 | 64 | 126 | 0.0 | 0.0 | 0.02 | 0.38 | 0.23 | 97 | 1010.1 |
| 20260507083008 | 64 | 126 | 0.0 | 0.0 | 0.05 | 0.37 | 0.22 | 97 | 1010.5 |
| 20260507081508 | 64 | 126 | 0.0 | 0.0 | 0.05 | 0.37 | 0.22 | 97 | 1010.8 |
| 20260507080008 | 64 | 129 | 0.0 | 0.0 | 0.05 | 0.37 | 0.22 | 97 | 1010.9 |
| 20260507074504 | 64 | 129 | 0.0 | 0.0 | 0.04 | 0.36 | 0.21 | 97 | 1010.2 |
| 20260507073004 | 64 | 137 | 0.0 | 0.0 | 0.00 | 0.32 | 0.17 | 97 | 1011.3 |
| 20260507071513 | 64 | 137 | 0.0 | 0.0 | 0.00 | 0.32 | 0.17 | 97 | 1011.4 |
| 20260507070022 | 64 | 137 | 0.0 | 0.0 | 0.00 | 0.32 | 0.17 | 96 | 1011.5 |
| 20260507064515 | 65 | 137 | 0.0 | 0.0 | 0.00 | 0.32 | 0.17 | 96 | 1011.5 |
| 20260507063007 | 65 | 137 | 0.0 | 0.0 | 0.00 | 0.32 | 0.17 | 96 | 1011.6 |
| 20260507061507 | 65 | 137 | 0.0 | 0.0 | 0.00 | 0.32 | 0.17 | 96 | 1012.0 |
| 20260507060012 | 65 | 137 | 0.0 | 0.0 | 0.02 | 0.32 | 0.17 | 96 | 1012.0 |
| 20260507054517 | 65 | 137 | 0.0 | 0.0 | 0.06 | 0.32 | 0.17 | 95 | 1012.4 |
| 20260507053020 | 65 | 137 | 0.0 | 0.0 | 0.10 | 0.32 | 0.17 | 95 | 1012.0 |
| 20260507051506 | 65 | 137 | 0.0 | 0.0 | 0.14 | 0.32 | 0.17 | 95 | 1011.0 |
| 20260507050020 | 65 | 138 | 0.0 | 0.0 | 0.15 | 0.30 | 0.15 | 94 | 1011.9 |
| 20260507044508 | 66 | 306 | 0.0 | 0.0 | 0.11 | 0.26 | 0.11 | 93 | 1012.9 |
| 20260507043007 | 67 | 306 | 0.0 | 0.0 | 0.07 | 0.22 | 0.07 | 92 | 1013.6 |
| 20260507041521 | 68 | 312 | 0.0 | 0.0 | 0.03 | 0.18 | 0.03 | 89 | 1013.7 |
| 20260507040006 | 68 | 360 | 0.0 | 0.0 | 0.00 | 0.15 | 0.00 | 88 | 1013.5 |